This is the latest recevied weather packets stored in our database for station/object CE3UOB-10. If no packets are shown the sender has not sent any weather packets the latest 10 day(s).
| Time | Temp. | Humidity | Pressure | Rain* | Wind** | Luminosity | Snow |
|---|---|---|---|---|---|---|---|
| 1778188436 | 13.89° C | 63% | 998.3 hPa | - | - | - | - |
| 1778188431 | 13.89° C | 63% | 998.3 hPa | - | - | - | - |
| 1778186636 | 15.56° C | 60% | 1001.6 hPa | - | - | - | - |
| 1778186630 | 15.56° C | 60% | 1001.6 hPa | - | - | - | - |
| 1778184836 | 16.11° C | 61% | 1001.4 hPa | - | - | - | - |
| 1778184830 | 16.11° C | 61% | 1001.4 hPa | - | - | - | - |
| 1778183037 | 16.11° C | 67% | 1001.5 hPa | - | - | - | - |
| 1778183030 | 16.11° C | 67% | 1001.5 hPa | - | - | - | - |
| 1778181285 | 16.11° C | 63% | 1001.3 hPa | - | - | - | - |
| 1778181236 | 16.11° C | 63% | 1001.3 hPa | - | - | - | - |
| 1778181230 | 16.11° C | 63% | 1001.3 hPa | - | - | - | - |
| 1778179437 | 16.67° C | 69% | 1001.4 hPa | - | - | - | - |
| 1778179429 | 16.67° C | 69% | 1001.4 hPa | - | - | - | - |
| 1778177637 | 15.56° C | 66% | 1001.7 hPa | - | - | - | - |
| 1778177628 | 15.56° C | 66% | 1001.7 hPa | - | - | - | - |
| 1778175836 | 15.56° C | 70% | 1002.2 hPa | - | - | - | - |
| 1778175831 | 15.56° C | 70% | 1002.2 hPa | - | - | - | - |
| 1778174036 | 15.56° C | 71% | 1002.8 hPa | - | - | - | - |
| 1778174031 | 15.56° C | 71% | 1002.8 hPa | - | - | - | - |
| 1778172230 | 14.44° C | 75% | 1003.3 hPa | - | - | - | - |
| 1778170436 | 13.89° C | 78% | 1003.6 hPa | - | - | - | - |
| 1778170430 | 13.89° C | 78% | 1003.6 hPa | - | - | - | - |
| 1778168630 | 12.78° C | 83% | 1003.7 hPa | - | - | - | - |
| 1778166836 | 11.67° C | 85% | 1004.1 hPa | - | - | - | - |
| 1778166832 | 11.67° C | 85% | 1004.1 hPa | - | - | - | - |
* Rain since midnight (hover to see other rain measurements)
** Current wind speed in m/s (hover to see current wind gust speed)